Météo par heure à Allmersbach

Ce jour, 15 Mai, Samedi

Heure Température Précipitation Vent Pression Humidité
00:00 +8°C° 0.1 mm 2 m/s 725 mmHg 94%
01:00 +8°C° 0 mm 2 m/s 725 mmHg 94%
02:00 +7°C° 0 mm 2 m/s 725 mmHg 94%
03:00 +6°C° 0 mm 2 m/s 725 mmHg 94%
04:00 +6°C° 0 mm 2 m/s 725 mmHg 94%
05:00 +7°C° 0 mm 2 m/s 725 mmHg 91%
06:00 +8°C° 0 mm 2 m/s 725 mmHg 89%
07:00 +8°C° 0 mm 2 m/s 725 mmHg 86%
08:00 +10°C° 0.1 mm 2 m/s 725 mmHg 81%
09:00 +11°C° 0.1 mm 3 m/s 724 mmHg 77%
10:00 +12°C° 0.1 mm 3 m/s 724 mmHg 72%
11:00 +13°C° 0.6 mm 3 m/s 723 mmHg 70%
12:00 +13°C° 0.6 mm 3 m/s 723 mmHg 69%
13:00 +14°C° 0.6 mm 3 m/s 722 mmHg 68%
14:00 +12°C° 0.8 mm 3 m/s 722 mmHg 76%
15:00 +11°C° 0.8 mm 4 m/s 722 mmHg 84%
16:00 +10°C° 0.8 mm 4 m/s 722 mmHg 91%
17:00 +10°C° 0.3 mm 4 m/s 722 mmHg 91%
18:00 +8°C° 0.3 mm 4 m/s 723 mmHg 91%
19:00 +8°C° 0.3 mm 4 m/s 723 mmHg 90%
20:00 +8°C° 0.1 mm 4 m/s 723 mmHg 90%
21:00 +7°C° 0.1 mm 4 m/s 723 mmHg 91%
22:00 +7°C° 0.1 mm 4 m/s 723 mmHg 91%
23:00 +7°C° 0.2 mm 4 m/s 723 mmHg 91%

Demain, 16 Mai, Dimanche

Heure Température Précipitation Vent Pression Humidité
00:00 +7°C° 0.2 mm 4 m/s 723 mmHg 92%
01:00 +8°C° 0.2 mm 3 m/s 723 mmHg 93%
02:00 +8°C° 0.2 mm 3 m/s 723 mmHg 93%
03:00 +8°C° 0.2 mm 3 m/s 723 mmHg 93%
04:00 +8°C° 0.2 mm 3 m/s 723 mmHg 93%
05:00 +8°C° 0 mm 3 m/s 723 mmHg 92%
06:00 +9°C° 0 mm 3 m/s 723 mmHg 91%
07:00 +9°C° 0 mm 3 m/s 723 mmHg 89%
08:00 +10°C° 0.3 mm 3 m/s 723 mmHg 88%
09:00 +10°C° 0.3 mm 3 m/s 723 mmHg 87%
10:00 +11°C° 0.3 mm 3 m/s 723 mmHg 85%
11:00 +11°C° 0.4 mm 3 m/s 722 mmHg 86%
12:00 +11°C° 0.4 mm 4 m/s 722 mmHg 86%
13:00 +10°C° 0.4 mm 5 m/s 722 mmHg 87%
14:00 +10°C° 1 mm 4 m/s 722 mmHg 89%
15:00 +10°C° 1 mm 3 m/s 722 mmHg 92%
16:00 +9°C° 1 mm 3 m/s 722 mmHg 94%
17:00 +10°C° 0.3 mm 3 m/s 721 mmHg 94%
18:00 +10°C° 0.3 mm 3 m/s 721 mmHg 93%
19:00 +10°C° 0.3 mm 3 m/s 721 mmHg 92%
20:00 +9°C° 0.8 mm 3 m/s 721 mmHg 93%
21:00 +8°C° 0.8 mm 4 m/s 721 mmHg 93%
22:00 +8°C° 0.8 mm 4 m/s 722 mmHg 93%
23:00 +8°C° 0.1 mm 4 m/s 722 mmHg 93%

Après-demain, 17 Mai, Lundi

Heure Température Précipitation Vent Pression Humidité
00:00 +7°C° 0.1 mm 4 m/s 722 mmHg 93%
01:00 +7°C° 0.1 mm 5 m/s 722 mmHg 93%
02:00 +7°C° 0.1 mm 5 m/s 722 mmHg 93%
03:00 +7°C° 0.1 mm 5 m/s 722 mmHg 92%
04:00 +7°C° 0.1 mm 5 m/s 722 mmHg 92%
05:00 +7°C° 0.1 mm 5 m/s 723 mmHg 91%
06:00 +7°C° 0.1 mm 5 m/s 723 mmHg 91%
07:00 +7°C° 0.1 mm 5 m/s 724 mmHg 90%
08:00 +7°C° 0.4 mm 5 m/s 724 mmHg 90%
09:00 +7°C° 0.4 mm 5 m/s 724 mmHg 90%
10:00 +7°C° 0.4 mm 5 m/s 724 mmHg 90%
11:00 +7°C° 0.2 mm 5 m/s 724 mmHg 90%
12:00 +7°C° 0.2 mm 5 m/s 725 mmHg 90%
13:00 +7°C° 0.2 mm 5 m/s 725 mmHg 90%
14:00 +8°C° 0.1 mm 6 m/s 725 mmHg 88%
15:00 +8°C° 0.1 mm 6 m/s 725 mmHg 85%
16:00 +9°C° 0.1 mm 6 m/s 725 mmHg 83%
17:00 +9°C° 0.1 mm 5 m/s 725 mmHg 83%
18:00 +9°C° 0.1 mm 5 m/s 725 mmHg 83%
19:00 +9°C° 0.1 mm 5 m/s 725 mmHg 83%
20:00 +8°C° 0 mm 4 m/s 725 mmHg 84%
21:00 +8°C° 0 mm 4 m/s 725 mmHg 85%
22:00 +7°C° 0 mm 4 m/s 725 mmHg 86%
23:00 +7°C° 0.3 mm 4 m/s 725 mmHg 86%

18 Mai, Mardi

Heure Température Précipitation Vent Pression Humidité
00:00 +7°C° 0.3 mm 4 m/s 725 mmHg 87%
01:00 +8°C° 0.3 mm 4 m/s 725 mmHg 88%
02:00 +7°C° 0.8 mm 5 m/s 726 mmHg 90%
03:00 +7°C° 0.8 mm 5 m/s 726 mmHg 91%
04:00 +7°C° 0.8 mm 5 m/s 726 mmHg 93%
05:00 +7°C° 0.7 mm 5 m/s 727 mmHg 93%
06:00 +7°C° 0.7 mm 5 m/s 727 mmHg 94%
07:00 +7°C° 0.7 mm 5 m/s 728 mmHg 95%
08:00 +7°C° 0.2 mm 5 m/s 728 mmHg 94%
09:00 +7°C° 0.2 mm 5 m/s 728 mmHg 94%
10:00 +7°C° 0.2 mm 6 m/s 729 mmHg 94%
11:00 +7°C° 0.2 mm 6 m/s 729 mmHg 94%
12:00 +7°C° 0.2 mm 6 m/s 729 mmHg 94%
13:00 +7°C° 0.2 mm 6 m/s 730 mmHg 93%
14:00 +7°C° 0.4 mm 6 m/s 730 mmHg 93%
15:00 +8°C° 0.4 mm 6 m/s 730 mmHg 92%
16:00 +8°C° 0.4 mm 6 m/s 730 mmHg 91%
17:00 +8°C° 0.3 mm 5 m/s 730 mmHg 91%
18:00 +8°C° 0.3 mm 5 m/s 731 mmHg 91%
19:00 +8°C° 0.3 mm 5 m/s 731 mmHg 91%
20:00 +7°C° 0.1 mm 4 m/s 731 mmHg 92%
21:00 +6°C° 0.1 mm 4 m/s 731 mmHg 93%
22:00 +7°C° 0.1 mm 3 m/s 732 mmHg 94%
23:00 +7°C° 0.1 mm 3 m/s 732 mmHg 94%

19 Mai, Mercredi

Heure Température Précipitation Vent Pression Humidité
00:00 +5°C° 0.1 mm 3 m/s 732 mmHg 94%
01:00 +6°C° 0.1 mm 2 m/s 732 mmHg 94%
02:00 +6°C° 0.1 mm 2 m/s 732 mmHg 94%
03:00 +6°C° 0.1 mm 2 m/s 731 mmHg 95%
04:00 +6°C° 0.1 mm 2 m/s 731 mmHg 95%
05:00 +6°C° 0.3 mm 2 m/s 731 mmHg 95%
06:00 +7°C° 0.3 mm 2 m/s 731 mmHg 95%
07:00 +7°C° 0.3 mm 2 m/s 731 mmHg 96%
08:00 +7°C° 1.6 mm 3 m/s 731 mmHg 96%
09:00 +7°C° 1.6 mm 3 m/s 731 mmHg 96%
10:00 +5°C° 1.6 mm 3 m/s 732 mmHg 96%
11:00 +7°C° 0.4 mm 3 m/s 732 mmHg 95%
12:00 +7°C° 0.4 mm 3 m/s 732 mmHg 95%
13:00 +8°C° 0.4 mm 3 m/s 732 mmHg 94%
14:00 +7°C° 0.5 mm 4 m/s 732 mmHg 92%
15:00 +8°C° 0.5 mm 4 m/s 732 mmHg 91%
16:00 +9°C° 0.5 mm 5 m/s 732 mmHg 89%
17:00 +8°C° 0.3 mm 5 m/s 732 mmHg 90%
18:00 +8°C° 0.3 mm 4 m/s 733 mmHg 90%
19:00 +8°C° 0.3 mm 4 m/s 733 mmHg 90%
20:00 +7°C° 0 mm 4 m/s 733 mmHg 91%
21:00 +7°C° 0 mm 3 m/s 733 mmHg 93%
22:00 +5°C° 0 mm 3 m/s 734 mmHg 94%
23:00 +5°C° 0 mm 2 m/s 734 mmHg 94%

20 Mai, Jeudi

Heure Température Précipitation Vent Pression Humidité
00:00 +5°C° 0 mm 2 m/s 734 mmHg 93%
01:00 +5°C° 0 mm 2 m/s 734 mmHg 93%
02:00 +5°C° 0 mm 2 m/s 733 mmHg 93%
03:00 +4°C° 0 mm 2 m/s 733 mmHg 92%
04:00 +4°C° 0 mm 2 m/s 733 mmHg 92%
05:00 +5°C° 0 mm 2 m/s 732 mmHg 89%
06:00 +7°C° 0 mm 1 m/s 732 mmHg 86%
07:00 +9°C° 0 mm 1 m/s 732 mmHg 84%
08:00 +9°C° 0 mm 2 m/s 732 mmHg 76%
09:00 +12°C° 0 mm 2 m/s 731 mmHg 67%
10:00 +13°C° 0 mm 3 m/s 731 mmHg 59%
11:00 +14°C° 0 mm 3 m/s 731 mmHg 57%
12:00 +14°C° 0 mm 3 m/s 730 mmHg 54%
13:00 +15°C° 0 mm 4 m/s 730 mmHg 52%
14:00 +17°C° 0 mm 4 m/s 729 mmHg 51%
15:00 +17°C° 0 mm 4 m/s 728 mmHg 51%
16:00 +18°C° 0 mm 4 m/s 728 mmHg 51%
17:00 +17°C° 0 mm 4 m/s 727 mmHg 56%
18:00 +16°C° 0 mm 3 m/s 727 mmHg 62%
19:00 +14°C° 0 mm 3 m/s 726 mmHg 68%
20:00 +13°C° 0.4 mm 3 m/s 726 mmHg 75%
21:00 +12°C° 0.4 mm 4 m/s 726 mmHg 83%
22:00 +10°C° 0.4 mm 4 m/s 726 mmHg 90%
23:00 +9°C° 0.1 mm 5 m/s 727 mmHg 88%
Voir plus

Nous avons besoin de votre consentement

Meteoprog et ses fournisseurs de services peuvent stocker et accéder à des données personnelles telles que des cookies, des identifiants d'appareils ou d'autres technologies similaires sur votre appareil et traiter ces données pour personnaliser le contenu et les publicités, ainsi que pour fournir des fonctionnalités de médias sociaux et analyser le trafic.

  • Stocker et/ou accéder à des informations sur votre appareil

    Des cookies, des identifiants d'appareils ou d'autres informations peuvent être stockés ou accessibles sur votre appareil aux fins indiquées ci-dessus.

  • Annonces et contenus personnalisés, mesure des annonces et des contenus, connaissance de l'audience et développement de produits

    Les annonces et le contenu peuvent être personnalisés en fonction d'un profil. D'autres données peuvent être ajoutées pour mieux personnaliser les annonces et le contenu. Les performances des publicités et du contenu peuvent être mesurées. Il est possible d'obtenir des informations sur le public qui a vu les publicités et le contenu. Ces données peuvent être utilisées pour développer ou améliorer l'expérience de l'utilisateur, les systèmes et les logiciels.

En cliquant sur "J'accepte", vous autorisez l'utilisation de cookies, des identifiants d'appareils, des balises web ou d'autres technologies similaires. Vos paramètres peuvent être modifiés dans le navigateur de votre appareil.

Dans certains cas, des intérêts légitimes peuvent être invoqués plutôt qu'un consentement. Vous pouvez en savoir plus à ce sujet dans notre Politique de confidentialité et de cookies.